Location: Tierra del Sol
(32.6128°N, 116.3319°W)
Time: 03:31:59
(UTC-07:00)

Vanguard 3 - All Passes

Search period start: 21 October 2017 00:00
Search period end: 31 October 2017 00:00
Orbit: 510 x 3263 km, 33.3° (Epoch: 20 October)

Date Brightness Start Highest point End Pass type
(mag) Time Alt. Az. Time Alt. Az. Time Alt. Az.
21 Oct - 01:24:16 10° SSW 01:39:08 29° SE 01:50:23 10° E visible
21 Oct - 03:37:30 10° SW 03:54:18 59° SSE 04:04:17 10° E visible
21 Oct - 05:54:52 10° WSW 06:08:27 89° SSE 06:15:44 10° E visible
21 Oct - 08:12:19 10° W 08:21:25 87° S 08:26:33 10° ESE daylight
21 Oct - 10:27:55 10° W 10:32:42 28° SSW 10:36:12 10° SSE daylight
22 Oct - 00:11:33 10° S 00:23:13 19° SE 00:33:21 10° ESE visible
22 Oct - 02:21:21 10° SW 02:38:41 46° SSE 02:50:18 10° E visible
22 Oct - 04:37:25 10° WSW 04:53:35 78° SSE 05:02:35 10° E visible
22 Oct - 06:55:35 10° W 07:07:22 85° N 07:13:43 10° E daylight
22 Oct - 09:12:14 10° W 09:19:38 56° SSW 09:24:08 10° SE daylight
23 Oct - 01:06:22 10° SSW 01:22:47 34° SE 01:35:22 10° E visible
23 Oct - 03:20:16 10° SW 03:38:12 66° SSE 03:49:05 10° E visible
23 Oct - 05:38:09 10° W 05:52:47 88° N 06:00:41 10° E visible
23 Oct - 07:56:01 10° W 08:06:03 82° SSW 08:11:34 10° ESE daylight
23 Oct - 10:12:17 10° W 10:17:14 24° SW 10:20:48 10° SSE daylight
23 Oct - 23:53:05 10° S 00:06:47 23° SE 00:18:47 10° E visible
24 Oct - 02:03:56 10° SW 02:22:22 52° SSE 02:35:01 10° E visible
24 Oct - 04:20:29 10° WSW 04:37:40 83° SSE 04:47:25 10° E visible
24 Oct - 06:39:02 10° W 06:51:51 87° N 06:58:44 10° E daylight
24 Oct - 08:56:08 10° W 09:04:12 50° SSW 09:09:01 10° SE daylight
24 Oct - 22:43:24 10° SSE 22:50:55 13° SE 22:58:12 10° ESE night (unlit)
25 Oct - 00:48:46 10° SSW 01:06:16 40° SE 01:20:06 10° E visible
25 Oct - 03:03:10 10° WSW 03:22:01 72° SSE 03:33:48 10° ENE visible
25 Oct - 05:21:23 10° W 05:37:04 87° N 05:45:37 10° E visible
25 Oct - 07:39:36 10° W 07:50:35 76° SSW 07:56:33 10° ESE daylight
25 Oct - 09:56:36 10° W 10:01:40 21° SW 10:05:20 10° S daylight
25 Oct - 23:35:09 10° S 23:50:12 28° SE 00:03:45 10° E visible
26 Oct - 01:46:42 10° SW 02:05:55 59° SSE 02:19:36 10° E visible
26 Oct - 04:03:34 10° WSW 04:21:39 87° SSE 04:32:12 10° E visible
26 Oct - 06:22:23 10° W 06:36:16 90° N 06:43:42 10° E visible
26 Oct - 08:39:55 10° W 08:48:40 45° SSW 08:53:51 10° SE daylight
26 Oct - 22:24:09 10° SSE 22:34:22 17° SE 22:44:29 10° ESE visible
27 Oct - 00:31:26 10° SSW 00:49:37 45° SSE 01:04:38 10° E visible
27 Oct - 02:46:10 10° WSW 03:05:42 77° SSE 03:18:24 10° ENE visible
27 Oct - 05:04:36 10° W 05:21:15 86° N 05:30:29 10° E visible
27 Oct - 07:23:04 10° WNW 07:35:00 71° SSW 07:41:30 10° ESE daylight
27 Oct - 09:40:52 10° W 09:46:01 19° SW 09:49:46 10° S daylight
27 Oct - 23:17:38 10° SSW 23:33:28 32° SE 23:48:22 10° E night (unlit)
28 Oct - 01:29:39 10° SW 01:49:20 64° SSE 02:04:04 10° ENE visible
28 Oct - 03:46:42 10° WSW 04:05:34 90° SSE 04:16:55 10° E visible
28 Oct - 06:05:39 10° W 06:20:34 87° SSW 06:28:37 10° ESE visible
28 Oct - 08:23:37 10° W 08:33:02 41° SW 08:38:36 10° SSE daylight
28 Oct - 22:05:56 10° S 22:17:42 20° SE 22:29:47 10° E visible
29 Oct - 00:14:20 10° SW 00:32:52 50° SSE 00:48:58 10° E visible
29 Oct - 02:29:17 10° WSW 02:49:18 81° SSE 03:02:56 10° E visible
29 Oct - 04:47:48 10° W 05:05:20 87° N 05:15:19 10° E visible
29 Oct - 07:06:26 10° WNW 07:19:20 66° SSW 07:26:21 10° SE daylight
29 Oct - 09:25:07 10° W 09:30:15 17° SW 09:34:05 10° S daylight
29 Oct - 23:00:25 10° SSW 23:16:38 37° SE 23:32:43 10° E visible
30 Oct - 01:12:47 10° SW 01:32:40 69° SSE 01:48:25 10° ENE visible
30 Oct - 03:29:54 10° W 03:49:22 89° N 04:01:35 10° E visible
30 Oct - 05:48:51 10° W 06:04:45 84° SSW 06:13:29 10° ESE visible
30 Oct - 08:07:14 10° W 08:17:15 37° SW 08:23:16 10° SSE daylight
30 Oct - 21:48:19 10° S 22:00:55 24° SE 22:14:29 10° E visible
